Meteo Giornale » Osservazioni meteo Egitto » Cairo

ore: 01:00 - Osservazioni Meteo Cairo
Lat. 30° 8' N Lon. 31° 24' E Alt. 64 metri s.l.m.

sereno Africa/Cairo

22 °C

Sereno

Temp. 24 Ore

21 °C

30 °C

Nord

13 Km/h

Dew point 18 °C

Umidità 78 %

Visibilità  6 Km

Il sole sorge alle ore 05:58

Il sole tramonta alle ore 17:19

Data e Ora Cielo e Fenomeni T °C DP °C Um. % Pres. hPa Vis. km Vento km/h
Oggi h: 01:00 sereno Sereno 22 18 78 1017 6 N 13
Oggi h: 00:30 sereno Sereno 22 18 78 1017 6 N 11.1
Oggi h: 00:00 sereno Sereno 22 18 78 1017 6 N 11.1
Ieri h: 23:30 sereno Sereno 23 18 73 1017 10 N 13
Ieri h: 23:00 sereno Sereno 23 18 73 1017 10 N 14.8
Ieri h: 22:30 sereno Sereno 23 18 73 1017 10 N 16.7
Ieri h: 22:00 sereno Sereno 24 18 69 1017 10 N 18.5
Ieri h: 21:30 sereno Sereno 24 17 64 1017 10 N 18.5
Ieri h: 21:00 sereno Sereno 24 17 64 1017 10 N 18.5
Ieri h: 20:30 sereno Sereno 25 16 57 1017 10 N 18.5
Ieri h: 20:00 sereno Sereno 25 15 53 1017 10 N 24
Ieri h: 19:30 sereno Sereno 25 15 53 1017 10 N 18.5
Ieri h: 19:00 sereno Sereno 26 16 54 1016 10 N 22.2
Ieri h: 18:30 sereno Sereno 26 16 54 1016 10 N 22.2
Ieri h: 18:00 sereno Sereno 27 15 47 1015 10 N 29.6
Ieri h: 17:00 sereno Sereno 29 15 42 1015 10 N/NO 22.2
Ieri h: 16:30 sereno Sereno 29 15 42 1015 10 N 18.5
Ieri h: 16:00 sereno Sereno 30 15 40 1015 10 N 18.5
Ieri h: 15:30 sereno Sereno 30 15 40 1014 10 N/NO 18.5
Ieri h: 15:00 sereno Sereno 30 15 40 1014 10 N 20.3
Ieri h: 14:30 sereno Sereno 29 14 39 1015 10 N/NO 20.3
Ieri h: 14:00 sereno Sereno 30 16 42 1015 10 N/NO 18.5
Ieri h: 13:32 sereno Sereno 30 17 45 1015 10 N/NO 22.2
Ieri h: 13:30 sereno Sereno 30 17 45 1015 10 N/NO 22.2
Ieri h: 13:04 sereno Sereno 28 16 48 1015 10 N 20.3
Ieri h: 13:00 sereno Sereno 28 16 48 1015 10 N 20.3
Ieri h: 12:30 sereno Sereno 29 18 51 1015 10 N/NO 18.5
Ieri h: 12:00 poco_nuvoloso Poco Nuvoloso 28 19 58 1015 10 N 18.5
Ieri h: 11:30 poco_nuvoloso Poco Nuvoloso 28 19 58 1016 10 N 20.3
Ieri h: 11:00 nuvoloso Nuvoloso 27 19 61 1016 10 N 16.7
Ieri h: 10:30 molto_nuvoloso Molto Nuvoloso 26 20 69 1016 10 N 20.3
Ieri h: 10:00 molto_nuvoloso Molto Nuvoloso 25 20 73 1017 10 N 20.3
Ieri h: 09:30 molto_nuvoloso Molto Nuvoloso 24 19 73 1017 6 N 18.5
Ieri h: 09:00 foschia Foschia 24 20 78 1016 3 N 16.7
Ieri h: 08:30 foschia Foschia 23 20 83 1016 3 N 14.8
Ieri h: 08:00 foschia Foschia 22 20 88 1016 3 N/NE 9.3
Ieri h: 06:30 foschia Foschia 21 19 88 1016 3 N 5.5
Ieri h: 06:00 foschia Foschia 21 19 88 1015 3 NE 7.4
Ieri h: 05:30 foschia Foschia 21 19 88 1015 3 N 11.1
Ieri h: 05:00 foschia Foschia 21 19 88 1015 3 N 9.3
Ieri h: 04:30 foschia Foschia 22 18 78 1015 3 N 9.3
Ieri h: 04:00 foschia Foschia 21 18 82 1015 3 NE 7.4
Ieri h: 03:30 foschia Foschia 21 18 82 1015 3 NE 7.4
Ieri h: 03:00 foschia Foschia 22 18 78 1015 3 NE 7.4
Ieri h: 02:30 sereno Sereno 22 18 78 1015 10 N/NE 11.1
Ieri h: 02:00 sereno Sereno 22 18 78 1015 10 NE 11.1